UAE9935 OMDW-EDDF

Flight info

Callsign UAE9935
Flight time N/A
Altitude 30000
Route ANVIX DCT GIDIS G783 RIGIL M628 PEKEM DCT KITUB DCT PMA DCT NOVPA/N0496F320 J981 DATOK L550 GENIV L324 LAKTO DCT OTHON DCT VAXOS DCT RDS UL609 MES DCT DISOR DCT LONTA UL608 DOLEV DCT LURID/N0478F340 DCT BEDOX DCT SIMBA DCT AKINI T161 DEBHI SPESA5C
Aircraft B77L/H-SDE1E2E3FGHIJ2J3J4J5M1RWXY/LB1D1

Departure

Time 2026-04-26 09:38
Airport Al Maktoum International Airport (OMDW)

Arrival

Time N/A
Airport Frankfurt Main Airport (EDDF)
Time Latitude Longitude Altitude Speed Heading
2026-04-26 07:48 24.89286 55.14343 166 ft 0 kts 301°
2026-04-26 09:22 24.89285 55.14344 166 ft 1 kts 301°
2026-04-26 09:22 24.89273 55.14366 166 ft 4 kts 301°
2026-04-26 09:23 24.89259 55.14392 166 ft 4 kts 300°
2026-04-26 09:23 24.89248 55.14412 166 ft 4 kts 315°
2026-04-26 09:23 24.89231 55.14424 166 ft 4 kts 358°
2026-04-26 09:23 24.89209 55.14419 166 ft 4 kts 28°
2026-04-26 09:24 24.89203 55.14415 166 ft 2 kts 30°
2026-04-26 09:24 24.89225 55.14425 166 ft 4 kts 12°
2026-04-26 09:24 24.89243 55.14419 166 ft 0 kts 329°
2026-04-26 09:24 24.89249 55.14412 166 ft 4 kts 313°
2026-04-26 09:25 24.89256 55.14399 166 ft 0 kts 300°
2026-04-26 09:25 24.89246 55.14416 166 ft 4 kts 321°
2026-04-26 09:25 24.89229 55.14425 166 ft 4 kts
2026-04-26 09:25 24.89205 55.14417 166 ft 4 kts 30°
2026-04-26 09:26 24.89183 55.14403 166 ft 4 kts 31°
2026-04-26 09:26 24.89160 55.14387 166 ft 4 kts 32°
2026-04-26 09:26 24.89152 55.14382 166 ft 0 kts 32°
2026-04-26 09:28 24.89184 55.14405 166 ft 13 kts 32°
2026-04-26 09:29 24.89285 55.14476 165 ft 18 kts 32°
2026-04-26 09:29 24.89356 55.14525 165 ft 18 kts 32°
2026-04-26 09:29 24.89364 55.14531 165 ft 18 kts 32°
2026-04-26 09:29 24.89470 55.14595 164 ft 18 kts 31°
2026-04-26 09:30 24.89574 55.14665 164 ft 18 kts 31°
2026-04-26 09:30 24.89680 55.14735 163 ft 18 kts 32°
2026-04-26 09:30 24.89784 55.14805 163 ft 18 kts 31°
2026-04-26 09:30 24.89889 55.14875 163 ft 18 kts 31°
2026-04-26 09:31 24.89960 55.14922 163 ft 11 kts 31°
2026-04-26 09:31 24.90024 55.14968 163 ft 11 kts 41°
2026-04-26 09:31 24.90022 55.15045 163 ft 11 kts 118°
2026-04-26 09:31 24.89983 55.15119 163 ft 11 kts 122°
2026-04-26 09:32 24.89936 55.15201 163 ft 17 kts 121°
2026-04-26 09:32 24.89866 55.15329 162 ft 20 kts 121°
2026-04-26 09:32 24.89793 55.15461 162 ft 20 kts 121°
2026-04-26 09:32 24.89720 55.15591 162 ft 20 kts 121°
2026-04-26 09:33 24.89648 55.15724 162 ft 22 kts 121°
2026-04-26 09:33 24.89563 55.15874 163 ft 23 kts 122°
2026-04-26 09:33 24.89480 55.16026 163 ft 23 kts 121°
2026-04-26 09:33 24.89385 55.16198 163 ft 31 kts 121°
2026-04-26 09:34 24.89272 55.16402 162 ft 29 kts 121°
2026-04-26 09:34 24.89166 55.16593 162 ft 29 kts 121°
2026-04-26 09:34 24.89058 55.16783 162 ft 29 kts 121°
2026-04-26 09:34 24.88955 55.16973 162 ft 29 kts 121°
2026-04-26 09:35 24.88850 55.17165 162 ft 29 kts 122°
2026-04-26 09:35 24.88743 55.17355 163 ft 29 kts 122°
2026-04-26 09:35 24.88637 55.17545 162 ft 29 kts 121°
2026-04-26 09:35 24.88531 55.17736 162 ft 27 kts 122°
2026-04-26 09:36 24.88468 55.17854 162 ft 10 kts 119°
2026-04-26 09:36 24.88495 55.17918 162 ft 11 kts 33°
2026-04-26 09:36 24.88561 55.17962 162 ft 12 kts 32°
2026-04-26 09:36 24.88629 55.17971 162 ft 11 kts 314°
2026-04-26 09:37 24.88659 55.17919 162 ft 7 kts 303°
2026-04-26 09:37 24.88672 55.17896 162 ft 4 kts 302°
2026-04-26 09:37 24.88790 55.17683 162 ft 66 kts 301°
2026-04-26 09:37 24.89138 55.17057 162 ft 127 kts 301°
2026-04-26 09:38 24.89697 55.16046 162 ft 176 kts 301°
2026-04-26 09:38 24.90394 55.14849 404 ft 189 kts 303°
2026-04-26 09:38 24.91085 55.13661 1008 ft 186 kts 304°
2026-04-26 09:38 24.91790 55.12399 1299 ft 200 kts 300°
2026-04-26 09:39 24.92488 55.11075 1902 ft 202 kts 303°
2026-04-26 09:39 24.93240 55.09687 2141 ft 216 kts 304°
2026-04-26 09:39 24.94025 55.08266 2693 ft 217 kts 303°
2026-04-26 09:39 24.94820 55.06806 3085 ft 225 kts 302°
2026-04-26 09:40 24.95530 55.05282 3527 ft 228 kts 283°
2026-04-26 09:40 24.95456 55.03525 3874 ft 238 kts 250°
2026-04-26 09:40 24.94467 55.02064 4272 ft 245 kts 217°
2026-04-26 09:40 24.93019 55.01058 4677 ft 249 kts 213°
2026-04-26 09:41 24.91478 55.00164 5172 ft 253 kts 195°
2026-04-26 09:41 24.89745 55.00127 5740 ft 252 kts 162°
2026-04-26 09:41 24.88266 55.01097 6180 ft 255 kts 131°
2026-04-26 09:41 24.87259 55.02713 6559 ft 260 kts 123°
2026-04-26 09:42 24.86376 55.04452 6947 ft 261 kts 107°
2026-04-26 09:42 24.86233 55.06436 7223 ft 266 kts 76°
2026-04-26 09:42 24.86657 55.08485 7357 ft 283 kts 75°
2026-04-26 09:42 24.87111 55.10635 7779 ft 290 kts 76°
2026-04-26 09:43 24.87557 55.12805 8365 ft 292 kts 76°
2026-04-26 09:43 24.88002 55.15000 8934 ft 295 kts 77°
2026-04-26 09:43 24.88446 55.17215 9550 ft 295 kts 78°
2026-04-26 09:43 24.88568 55.19467 10001 ft 300 kts 96°
2026-04-26 09:44 24.88101 55.21729 10286 ft 311 kts 112°
2026-04-26 09:44 24.87245 55.23999 10412 ft 331 kts 115°
2026-04-26 09:44 24.86278 55.26382 10663 ft 346 kts 115°
2026-04-26 09:44 24.85284 55.28819 11270 ft 350 kts 116°
2026-04-26 09:45 24.84300 55.31254 11923 ft 353 kts 116°
2026-04-26 09:45 24.83307 55.33747 12602 ft 357 kts 116°
2026-04-26 09:45 24.82315 55.36262 13292 ft 359 kts 115°
2026-04-26 09:45 24.81317 55.38805 13898 ft 364 kts 116°
2026-04-26 09:46 24.80307 55.41391 14412 ft 371 kts 115°
2026-04-26 09:46 24.79282 55.44022 14866 ft 378 kts 115°
2026-04-26 09:46 24.78251 55.46697 15461 ft 381 kts 115°
2026-04-26 09:46 24.77214 55.49394 16062 ft 385 kts 115°
2026-04-26 09:47 24.76159 55.52123 16597 ft 389 kts 115°
2026-04-26 09:47 24.75102 55.54841 17145 ft 394 kts 115°
2026-04-26 09:47 24.74011 55.57627 17707 ft 398 kts 114°
2026-04-26 09:47 24.72906 55.60445 18238 ft 403 kts 114°
2026-04-26 09:48 24.71791 55.63289 18715 ft 407 kts 115°
2026-04-26 09:48 24.70664 55.66161 19203 ft 410 kts 115°
2026-04-26 09:48 24.69528 55.69061 19710 ft 414 kts 115°
2026-04-26 09:48 24.68384 55.71979 20207 ft 417 kts 115°
2026-04-26 09:49 24.67229 55.74923 20701 ft 421 kts 115°
2026-04-26 09:49 24.66065 55.77889 21184 ft 424 kts 115°
2026-04-26 09:49 24.64878 55.80865 21652 ft 424 kts 119°
2026-04-26 09:49 24.63194 55.83499 21925 ft 423 kts 140°
2026-04-26 09:50 24.60801 55.85322 22365 ft 417 kts 160°
2026-04-26 09:50 24.58061 55.86242 22892 ft 409 kts 176°
2026-04-26 09:50 24.55249 55.86269 23420 ft 402 kts 193°
2026-04-26 09:50 24.52569 55.85503 23842 ft 398 kts 205°
2026-04-26 09:51 24.50165 55.84028 24192 ft 394 kts 222°
2026-04-26 09:51 24.48132 55.82078 24518 ft 396 kts 225°
2026-04-26 09:51 24.46083 55.80028 24874 ft 400 kts 225°
2026-04-26 09:51 24.44015 55.77973 25286 ft 403 kts 224°
2026-04-26 09:52 24.41889 55.75898 25753 ft 404 kts 224°
2026-04-26 09:52 24.37651 55.71833 26570 ft 410 kts 224°
2026-04-26 09:52 24.35496 55.69765 26974 ft 413 kts 224°
2026-04-26 09:53 24.33329 55.67673 27365 ft 416 kts 224°
2026-04-26 09:53 24.31152 55.65569 27761 ft 419 kts 224°
2026-04-26 09:53 24.28943 55.63465 28130 ft 422 kts 221°
2026-04-26 09:53 24.26494 55.61633 28461 ft 430 kts 213°
2026-04-26 09:54 24.23813 55.60145 28844 ft 435 kts 207°
2026-04-26 09:54 24.20947 55.58990 29200 ft 442 kts 200°
2026-04-26 09:54 24.17959 55.58107 29557 ft 446 kts 199°
2026-04-26 09:54 24.14941 55.57259 29872 ft 451 kts 199°
2026-04-26 09:55 24.08807 55.55506 29942 ft 464 kts 199°
2026-04-26 09:55 24.02482 55.53639 29932 ft 477 kts 199°
2026-04-26 09:56 23.95990 55.51710 29917 ft 488 kts 199°
2026-04-26 09:56 23.89417 55.49752 29916 ft 497 kts 199°
2026-04-26 09:57 23.82719 55.47762 29887 ft 498 kts 199°
2026-04-26 09:57 23.76024 55.45768 29883 ft 498 kts 199°
2026-04-26 09:58 23.69333 55.43773 29892 ft 498 kts 199°
2026-04-26 09:58 23.62649 55.41784 29887 ft 498 kts 199°
2026-04-26 09:59 23.57098 55.40134 29886 ft 497 kts 199°
2026-04-26 09:59 23.49331 55.37829 29880 ft 497 kts 199°
2026-04-26 10:00 23.42642 55.35860 29882 ft 498 kts 198°
2026-04-26 10:00 23.35951 55.33895 29882 ft 498 kts 198°
2026-04-26 10:01 23.29256 55.31928 29875 ft 499 kts 198°
2026-04-26 10:01 23.22544 55.29957 29875 ft 499 kts 198°
2026-04-26 10:02 23.15828 55.27986 29871 ft 500 kts 198°
2026-04-26 10:02 23.09181 55.25966 29863 ft 494 kts 205°
2026-04-26 10:03 23.06206 55.24192 29872 ft 486 kts 221°
2026-04-26 10:03 23.03852 55.21604 29887 ft 481 kts 235°
2026-04-26 10:03 23.00924 55.15173 29860 ft 474 kts 258°
2026-04-26 10:04 22.99634 55.08147 29867 ft 477 kts 259°
2026-04-26 10:04 22.98332 55.01062 29873 ft 480 kts 259°
2026-04-26 10:05 22.97194 54.95149 29864 ft 482 kts 259°
2026-04-26 10:05 22.95789 54.88028 29854 ft 482 kts 258°
2026-04-26 10:06 22.94147 54.79765 29864 ft 481 kts 258°
2026-04-26 10:06 22.92972 54.73862 29864 ft 480 kts 258°
2026-04-26 10:07 22.91565 54.66793 29864 ft 478 kts 258°
2026-04-26 10:07 22.90158 54.59741 29868 ft 478 kts 259°
2026-04-26 10:08 22.88757 54.52737 29871 ft 477 kts 259°
2026-04-26 10:08 22.87344 54.45691 29867 ft 478 kts 259°
2026-04-26 10:09 22.85927 54.38640 29864 ft 478 kts 259°
2026-04-26 10:09 22.84507 54.31593 29872 ft 479 kts 259°
2026-04-26 10:10 22.83082 54.24536 29867 ft 479 kts 259°
2026-04-26 10:10 22.81652 54.17467 29874 ft 480 kts 259°
2026-04-26 10:11 22.80228 54.10451 29869 ft 480 kts 259°
2026-04-26 10:11 22.78791 54.03341 29873 ft 479 kts 260°
2026-04-26 10:12 22.78062 53.96233 29881 ft 477 kts 269°
2026-04-26 10:12 22.78241 53.89049 29883 ft 477 kts 272°
2026-04-26 10:13 22.78486 53.81858 29873 ft 477 kts 272°
2026-04-26 10:13 22.78706 53.74666 29882 ft 477 kts 272°
2026-04-26 10:14 22.78908 53.67521 29872 ft 477 kts 272°
2026-04-26 10:14 22.79102 53.60328 29877 ft 477 kts 272°
2026-04-26 10:15 22.79293 53.53131 29879 ft 477 kts 272°
2026-04-26 10:15 22.79481 53.45939 29876 ft 477 kts 272°
2026-04-26 10:16 22.79667 53.38743 29877 ft 477 kts 271°
2026-04-26 10:16 22.79850 53.31546 29882 ft 477 kts 271°
2026-04-26 10:17 22.80029 53.24357 29875 ft 477 kts 271°
2026-04-26 10:17 22.80204 53.17227 29875 ft 477 kts 271°
2026-04-26 10:18 22.80376 53.10039 29874 ft 476 kts 271°
2026-04-26 10:18 22.80546 53.02853 29873 ft 476 kts 271°
2026-04-26 10:19 22.80712 52.95676 29883 ft 476 kts 271°
2026-04-26 10:19 22.80875 52.88488 29873 ft 476 kts 271°
2026-04-26 10:20 22.81033 52.81367 29882 ft 475 kts 271°
2026-04-26 10:20 22.81189 52.74198 29883 ft 475 kts 271°
2026-04-26 10:21 22.81343 52.67025 29878 ft 475 kts 271°
2026-04-26 10:21 22.81492 52.59859 29876 ft 475 kts 271°
2026-04-26 10:22 22.81639 52.52690 29877 ft 475 kts 271°
2026-04-26 10:22 22.81781 52.45567 29878 ft 475 kts 271°
2026-04-26 10:23 22.81922 52.38355 29876 ft 476 kts 271°
2026-04-26 10:23 22.82059 52.31233 29883 ft 476 kts 271°
2026-04-26 10:24 22.82192 52.24064 29878 ft 475 kts 271°
2026-04-26 10:24 22.82322 52.16904 29885 ft 475 kts 271°
2026-04-26 10:25 22.82450 52.09740 29887 ft 474 kts 271°
2026-04-26 10:25 22.82574 52.02592 29885 ft 473 kts 271°
2026-04-26 10:26 22.82693 51.95506 29887 ft 473 kts 271°
2026-04-26 10:26 22.82810 51.88379 29887 ft 472 kts 271°
2026-04-26 10:27 22.82924 51.81259 29892 ft 472 kts 271°
2026-04-26 10:27 22.83035 51.74145 29898 ft 472 kts 271°
2026-04-26 10:28 22.83142 51.67034 29885 ft 471 kts 271°
2026-04-26 10:28 22.83246 51.59925 29892 ft 471 kts 271°
2026-04-26 10:29 22.83347 51.52824 29891 ft 471 kts 271°
2026-04-26 10:29 22.83444 51.45770 29896 ft 471 kts 270°
2026-04-26 10:30 22.83539 51.38663 29892 ft 471 kts 270°
2026-04-26 10:30 22.83631 51.31551 29891 ft 471 kts 270°
2026-04-26 10:31 22.83719 51.24469 29897 ft 472 kts 270°
2026-04-26 10:31 22.83804 51.17357 29896 ft 472 kts 270°
2026-04-26 10:32 22.83886 51.10244 29894 ft 471 kts 270°
2026-04-26 10:32 22.83965 51.03135 29896 ft 471 kts 270°
2026-04-26 10:33 22.84041 50.96035 29897 ft 471 kts 270°
2026-04-26 10:33 22.84113 50.88976 29901 ft 470 kts 270°
2026-04-26 10:34 22.84182 50.81888 29905 ft 470 kts 270°
2026-04-26 10:34 22.84248 50.74808 29893 ft 469 kts 270°
2026-04-26 10:35 22.84311 50.67740 29903 ft 469 kts 270°
2026-04-26 10:35 22.84371 50.60668 29898 ft 469 kts 270°
2026-04-26 10:36 22.84428 50.53594 29907 ft 468 kts 270°
2026-04-26 10:36 22.84481 50.46528 29900 ft 468 kts 270°
2026-04-26 10:37 22.84531 50.39510 29905 ft 468 kts 270°
2026-04-26 10:37 22.84578 50.32444 29897 ft 469 kts 270°
2026-04-26 10:38 22.84622 50.25375 29902 ft 469 kts 270°
2026-04-26 10:38 22.84664 50.18301 29895 ft 469 kts 270°
2026-04-26 10:39 22.84702 50.11224 29900 ft 469 kts 269°
2026-04-26 10:39 22.84737 50.04149 29898 ft 469 kts 269°
2026-04-26 10:40 22.84768 49.97076 29893 ft 469 kts 269°
2026-04-26 10:40 22.84797 49.90041 29900 ft 470 kts 269°
2026-04-26 10:41 22.84822 49.82961 29903 ft 470 kts 269°
2026-04-26 10:41 22.84844 49.75868 29901 ft 470 kts 269°
2026-04-26 10:42 22.84861 49.69978 29900 ft 470 kts 269°
2026-04-26 10:42 22.84880 49.61690 29890 ft 470 kts 269°
2026-04-26 10:43 22.84893 49.54600 29897 ft 470 kts 269°
2026-04-26 10:43 22.84902 49.47505 29903 ft 471 kts 269°
2026-04-26 10:44 22.84909 49.40408 29899 ft 471 kts 268°
2026-04-26 10:44 22.84913 49.33298 29896 ft 471 kts 268°
2026-04-26 10:45 22.84913 49.26245 29900 ft 471 kts 268°
2026-04-26 10:45 22.84910 49.19136 29900 ft 471 kts 268°
2026-04-26 10:46 22.84904 49.12030 29902 ft 471 kts 268°
2026-04-26 10:46 22.84895 49.04920 29895 ft 471 kts 268°
2026-04-26 10:47 22.84883 48.97812 29904 ft 471 kts 268°
2026-04-26 10:47 22.84868 48.90697 29900 ft 471 kts 268°
2026-04-26 10:48 22.84849 48.83639 29893 ft 471 kts 268°
2026-04-26 10:48 22.84828 48.76530 29912 ft 471 kts 268°
2026-04-26 10:49 22.84803 48.69428 29899 ft 471 kts 268°
2026-04-26 10:49 22.84775 48.62328 29902 ft 471 kts 268°
2026-04-26 10:50 22.84749 48.56423 29898 ft 470 kts 268°
2026-04-26 10:50 22.84710 48.48135 29901 ft 470 kts 268°
2026-04-26 10:51 22.84660 48.38713 29897 ft 469 kts 268°
2026-04-26 10:52 22.84611 48.30494 29898 ft 468 kts 268°
2026-04-26 10:52 22.84567 48.23436 29915 ft 468 kts 268°
2026-04-26 10:53 22.84526 48.17530 29903 ft 467 kts 268°
2026-04-26 10:53 22.84476 48.10527 29914 ft 467 kts 268°
2026-04-26 10:54 22.84395 47.99962 29915 ft 467 kts 268°
2026-04-26 10:54 22.84336 47.92906 29914 ft 467 kts 268°
2026-04-26 10:55 22.84275 47.85875 29898 ft 461 kts 267°
2026-04-26 10:55 22.84214 47.78977 29906 ft 455 kts 267°
2026-04-26 10:56 22.84148 47.72169 29914 ft 454 kts 267°
2026-04-26 10:56 22.84079 47.65326 29930 ft 453 kts 267°
2026-04-26 10:57 22.84007 47.58489 29935 ft 454 kts 267°
2026-04-26 10:57 22.83933 47.51645 29924 ft 455 kts 267°
2026-04-26 10:58 22.83855 47.44779 29936 ft 455 kts 267°
2026-04-26 10:58 22.83775 47.37923 29937 ft 455 kts 267°
2026-04-26 10:59 22.83692 47.31068 29937 ft 455 kts 267°
2026-04-26 10:59 22.83606 47.24218 29936 ft 454 kts 267°
2026-04-26 11:00 22.83518 47.17423 29946 ft 453 kts 267°
2026-04-26 11:00 22.83426 47.10599 29944 ft 452 kts 267°
2026-04-26 11:01 22.83332 47.03790 29945 ft 451 kts 267°
2026-04-26 11:01 22.83235 46.96986 29950 ft 451 kts 267°
2026-04-26 11:02 22.83135 46.90229 29948 ft 450 kts 267°
2026-04-26 11:02 22.83032 46.83450 29954 ft 450 kts 267°
2026-04-26 11:03 22.82928 46.76671 29959 ft 450 kts 267°
2026-04-26 11:03 22.82820 46.69892 29955 ft 450 kts 267°
2026-04-26 11:04 22.82709 46.63109 29953 ft 450 kts 267°
2026-04-26 11:04 22.82595 46.56332 29961 ft 449 kts 267°
2026-04-26 11:05 22.82479 46.49562 29957 ft 449 kts 267°
2026-04-26 11:05 22.82449 46.42788 29952 ft 450 kts 271°
2026-04-26 11:06 22.83330 46.36058 29964 ft 452 kts 279°
2026-04-26 11:06 22.85051 46.29477 29968 ft 454 kts 284°
2026-04-26 11:07 22.86932 46.22935 29955 ft 454 kts 284°
2026-04-26 11:07 22.88791 46.16425 29945 ft 454 kts 284°
2026-04-26 11:08 22.90638 46.09877 29945 ft 454 kts 283°
2026-04-26 11:08 22.92476 46.03318 29933 ft 454 kts 283°
2026-04-26 11:09 22.94304 45.96775 29945 ft 453 kts 283°
2026-04-26 11:09 22.96131 45.90231 29937 ft 453 kts 283°
2026-04-26 11:10 22.97952 45.83695 29933 ft 452 kts 283°
2026-04-26 11:10 22.99759 45.77200 29934 ft 452 kts 283°
2026-04-26 11:11 23.01571 45.70676 29943 ft 451 kts 283°
2026-04-26 11:11 23.03381 45.64145 29944 ft 451 kts 283°
2026-04-26 11:12 23.05186 45.57626 29943 ft 451 kts 283°
2026-04-26 11:12 23.06988 45.51103 29942 ft 450 kts 283°
2026-04-26 11:13 23.08785 45.44585 29944 ft 450 kts 283°
2026-04-26 11:13 23.10577 45.38077 29944 ft 449 kts 283°
2026-04-26 11:14 23.12365 45.31571 29948 ft 449 kts 283°
2026-04-26 11:14 23.14149 45.25069 29950 ft 449 kts 283°
2026-04-26 11:15 23.15927 45.18573 29950 ft 448 kts 283°
2026-04-26 11:15 23.17693 45.12113 29955 ft 448 kts 283°
2026-04-26 11:16 23.19468 45.05610 29953 ft 448 kts 283°
2026-04-26 11:16 23.21235 44.99123 29955 ft 448 kts 283°
2026-04-26 11:17 23.23000 44.92631 29955 ft 447 kts 283°
2026-04-26 11:17 23.24760 44.86150 29959 ft 447 kts 283°
2026-04-26 11:18 23.26517 44.79664 29961 ft 447 kts 283°
2026-04-26 11:18 23.28272 44.73176 29953 ft 447 kts 283°
2026-04-26 11:19 23.30010 44.66739 29958 ft 446 kts 283°
2026-04-26 11:19 23.31756 44.60260 29964 ft 445 kts 283°
2026-04-26 11:20 23.33203 44.54881 29960 ft 445 kts 283°
2026-04-26 11:20 23.35231 44.47330 29959 ft 444 kts 283°
2026-04-26 11:21 23.36960 44.40880 29957 ft 444 kts 283°
2026-04-26 11:21 23.38686 44.34431 29955 ft 443 kts 283°
2026-04-26 11:22 23.40404 44.28000 29953 ft 442 kts 283°
2026-04-26 11:22 23.42108 44.21612 29954 ft 441 kts 283°
2026-04-26 11:23 23.43817 44.15190 29953 ft 440 kts 283°
2026-04-26 11:23 23.45517 44.08789 29954 ft 440 kts 283°
2026-04-26 11:24 23.47212 44.02398 29954 ft 439 kts 283°
2026-04-26 11:24 23.48902 43.96013 29957 ft 438 kts 283°
2026-04-26 11:25 23.50587 43.89637 29959 ft 437 kts 283°
2026-04-26 11:25 23.52266 43.83273 29967 ft 437 kts 283°
2026-04-26 11:26 23.53934 43.76937 29967 ft 436 kts 283°
2026-04-26 11:26 23.55609 43.70566 29973 ft 436 kts 283°
2026-04-26 11:27 23.57276 43.64209 29978 ft 435 kts 283°
2026-04-26 11:27 23.58927 43.57905 29978 ft 435 kts 283°
2026-04-26 11:28 23.60586 43.51562 29988 ft 435 kts 283°
2026-04-26 11:28 23.62240 43.45223 29993 ft 434 kts 283°
2026-04-26 11:29 23.63892 43.38881 29997 ft 434 kts 283°
2026-04-26 11:29 23.65540 43.32542 30002 ft 433 kts 283°
2026-04-26 11:30 23.66902 43.27294 30015 ft 433 kts 283°
2026-04-26 11:30 23.68807 43.19943 30012 ft 432 kts 283°
2026-04-26 11:31 23.70448 43.13596 30003 ft 432 kts 283°
2026-04-26 11:31 23.72076 43.07294 30011 ft 431 kts 283°
2026-04-26 11:32 23.73687 43.01035 29986 ft 431 kts 283°
2026-04-26 11:32 23.75307 42.94737 30012 ft 430 kts 283°
2026-04-26 11:33 23.76923 42.88443 30009 ft 430 kts 283°
2026-04-26 11:33 23.78536 42.82149 30014 ft 430 kts 283°
2026-04-26 11:34 23.80145 42.75859 30007 ft 430 kts 283°
2026-04-26 11:34 23.81752 42.69566 30011 ft 430 kts 283°
2026-04-26 11:35 23.83349 42.63299 30015 ft 430 kts 283°
2026-04-26 11:35 23.84690 42.58026 30017 ft 430 kts 283°
2026-04-26 11:36 23.86549 42.50707 30014 ft 429 kts 283°
2026-04-26 11:36 23.88144 42.44411 30010 ft 429 kts 283°
2026-04-26 11:37 23.89736 42.38120 30014 ft 429 kts 283°
2026-04-26 11:37 23.91324 42.31829 30015 ft 429 kts 283°
2026-04-26 11:38 23.92640 42.26607 30014 ft 429 kts 283°
2026-04-26 11:38 23.94481 42.19293 30020 ft 429 kts 282°
2026-04-26 11:39 23.96063 42.12990 30021 ft 430 kts 282°
2026-04-26 11:39 23.97644 42.06682 30018 ft 430 kts 282°
2026-04-26 11:40 23.98968 42.01391 30025 ft 431 kts 282°
2026-04-26 11:40 24.00545 41.95077 30022 ft 431 kts 282°
2026-04-26 11:42 24.06820 41.69836 30019 ft 429 kts 282°
2026-04-26 11:43 24.08371 41.63564 30023 ft 429 kts 282°
2026-04-26 11:43 24.09929 41.57258 30027 ft 428 kts 282°
2026-04-26 11:44 24.11480 41.50964 30026 ft 428 kts 282°
2026-04-26 11:44 24.13029 41.44664 30024 ft 428 kts 282°
2026-04-26 11:45 24.14576 41.38364 30023 ft 428 kts 282°
2026-04-26 11:45 24.16119 41.32070 30026 ft 428 kts 282°
2026-04-26 11:46 24.17657 41.25780 30016 ft 428 kts 282°
2026-04-26 11:46 24.19195 41.19482 30022 ft 428 kts 281°
2026-04-26 11:47 24.20729 41.13183 30008 ft 428 kts 281°
2026-04-26 11:47 24.22249 41.06932 30017 ft 428 kts 281°
2026-04-26 11:48 24.23782 41.00617 30010 ft 428 kts 281°
2026-04-26 11:48 24.25309 40.94317 30009 ft 427 kts 281°
2026-04-26 11:49 24.26831 40.88020 30011 ft 427 kts 281°
2026-04-26 11:49 24.28350 40.81726 30005 ft 427 kts 281°
2026-04-26 11:50 24.29853 40.75482 30007 ft 426 kts 281°
2026-04-26 11:50 24.31364 40.69198 30005 ft 426 kts 281°
2026-04-26 11:51 24.32871 40.62916 30007 ft 425 kts 281°
2026-04-26 11:51 24.34375 40.56636 30004 ft 425 kts 281°
2026-04-26 11:52 24.35872 40.50371 30005 ft 425 kts 281°
2026-04-26 11:52 24.37354 40.44153 30009 ft 424 kts 281°
2026-04-26 11:53 24.38845 40.37893 29997 ft 424 kts 281°
2026-04-26 11:54 24.41077 40.28493 30000 ft 423 kts 281°
2026-04-26 11:54 24.42558 40.22240 29998 ft 423 kts 281°
2026-04-26 11:55 24.44037 40.15983 30003 ft 423 kts 281°
2026-04-26 11:55 24.45505 40.09762 29997 ft 423 kts 281°
2026-04-26 11:56 24.46978 40.03506 29997 ft 423 kts 281°
2026-04-26 11:56 24.48449 39.97244 29999 ft 423 kts 281°
2026-04-26 11:57 24.49918 39.90981 29996 ft 423 kts 281°
2026-04-26 11:57 24.51384 39.84718 29999 ft 423 kts 281°
2026-04-26 11:58 24.52848 39.78452 30001 ft 424 kts 281°
2026-04-26 11:58 24.54866 39.72357 29999 ft 431 kts 293°
2026-04-26 11:59 24.58158 39.66829 29993 ft 440 kts 303°
2026-04-26 11:59 24.62520 39.62000 30003 ft 447 kts 309°
2026-04-26 12:00 24.67049 39.57296 30003 ft 448 kts 309°
2026-04-26 12:00 24.71566 39.52571 29995 ft 449 kts 309°
2026-04-26 12:01 24.76076 39.47799 30003 ft 449 kts 309°
2026-04-26 12:01 24.80545 39.43038 29990 ft 450 kts 309°
2026-04-26 12:02 24.85039 39.38240 29992 ft 450 kts 309°
2026-04-26 12:02 24.89531 39.33443 29989 ft 447 kts 309°
2026-04-26 12:03 24.93995 39.28673 29986 ft 446 kts 309°
2026-04-26 12:03 24.98447 39.23907 29986 ft 445 kts 309°
2026-04-26 12:04 25.02891 39.19148 29989 ft 445 kts 309°
2026-04-26 12:04 25.07295 39.14424 29994 ft 445 kts 309°
2026-04-26 12:05 25.11728 39.09667 29977 ft 445 kts 309°
2026-04-26 12:05 25.16176 39.04887 29971 ft 447 kts 309°
2026-04-26 12:06 25.20628 39.00095 29965 ft 447 kts 309°
2026-04-26 12:06 25.25076 38.95308 29962 ft 444 kts 309°
2026-04-26 12:07 25.29511 38.90524 29972 ft 446 kts 309°
2026-04-26 12:07 25.33944 38.85744 29968 ft 444 kts 309°
2026-04-26 12:08 25.38364 38.80968 29971 ft 445 kts 309°
2026-04-26 12:08 25.42755 38.76214 29964 ft 445 kts 309°
2026-04-26 12:09 25.47189 38.71413 29953 ft 445 kts 309°
2026-04-26 12:09 25.51615 38.66617 29954 ft 445 kts 309°
2026-04-26 12:10 25.56043 38.61811 29942 ft 445 kts 309°
2026-04-26 12:10 25.60468 38.57004 29945 ft 445 kts 309°
2026-04-26 12:11 25.64867 38.52220 29941 ft 445 kts 309°
2026-04-26 12:11 25.69289 38.47406 29946 ft 446 kts 309°
2026-04-26 12:12 25.73717 38.42580 29943 ft 446 kts 309°
2026-04-26 12:12 25.78151 38.37743 29939 ft 446 kts 309°
2026-04-26 12:13 25.82574 38.32912 29947 ft 446 kts 309°
2026-04-26 12:13 25.86970 38.28104 29938 ft 446 kts 309°
2026-04-26 12:14 25.91391 38.23265 29938 ft 446 kts 309°
2026-04-26 12:14 25.95810 38.18425 29934 ft 446 kts 309°
2026-04-26 12:15 26.00225 38.13577 29940 ft 446 kts 308°
2026-04-26 12:15 26.04641 38.08725 29942 ft 447 kts 309°
2026-04-26 12:16 26.09066 38.03861 29948 ft 446 kts 308°
2026-04-26 12:16 26.13454 37.99033 29950 ft 446 kts 308°
2026-04-26 12:17 26.17855 37.94182 29965 ft 446 kts 308°
2026-04-26 12:17 26.22268 37.89312 29967 ft 446 kts 308°
2026-04-26 12:18 26.26682 37.84435 29964 ft 447 kts 308°
2026-04-26 12:18 26.31104 37.79545 29952 ft 448 kts 308°
2026-04-26 12:19 26.35499 37.74683 29931 ft 447 kts 308°
2026-04-26 12:19 26.39903 37.69800 29972 ft 446 kts 308°
2026-04-26 12:20 26.44315 37.64904 29983 ft 446 kts 308°
2026-04-26 12:20 26.48720 37.60010 29977 ft 447 kts 308°
2026-04-26 12:21 26.53129 37.55108 29981 ft 447 kts 308°
2026-04-26 12:21 26.57536 37.50200 29988 ft 447 kts 308°
2026-04-26 12:22 26.61917 37.45316 29959 ft 447 kts 308°
2026-04-26 12:22 26.66312 37.40417 29972 ft 446 kts 308°
2026-04-26 12:23 26.70694 37.35517 29985 ft 446 kts 308°
2026-04-26 12:23 26.75103 37.30582 29973 ft 447 kts 308°
2026-04-26 12:24 26.79510 37.25647 29975 ft 448 kts 308°
2026-04-26 12:24 26.83926 37.20696 29973 ft 449 kts 308°
2026-04-26 12:25 26.90518 37.13295 29967 ft 449 kts 308°
2026-04-26 12:25 26.94219 37.09135 29960 ft 450 kts 308°
2026-04-26 12:26 26.98610 37.04189 29965 ft 450 kts 308°
2026-04-26 12:26 27.03028 36.99211 29968 ft 449 kts 308°
2026-04-26 12:27 27.07435 36.94245 29968 ft 448 kts 308°
2026-04-26 12:27 27.11792 36.89323 29965 ft 446 kts 308°
2026-04-26 12:28 27.16158 36.84385 29962 ft 445 kts 308°
2026-04-26 12:28 27.20513 36.79454 29948 ft 443 kts 308°
2026-04-26 12:29 27.24858 36.74529 29952 ft 443 kts 308°
2026-04-26 12:30 27.31348 36.67158 29964 ft 444 kts 308°
2026-04-26 12:30 27.35697 36.62214 29970 ft 445 kts 308°
2026-04-26 12:31 27.42228 36.54779 29963 ft 444 kts 308°
2026-04-26 12:31 27.46565 36.49835 29959 ft 443 kts 308°
2026-04-26 12:32 27.50893 36.44895 29949 ft 442 kts 308°
2026-04-26 12:33 27.57352 36.37507 29960 ft 442 kts 308°
2026-04-26 12:33 27.61670 36.32563 29963 ft 442 kts 308°
2026-04-26 12:34 27.65994 36.27607 29969 ft 443 kts 308°
2026-04-26 12:34 27.70322 36.22637 29960 ft 445 kts 308°
2026-04-26 12:35 27.74666 36.17646 29964 ft 445 kts 308°
2026-04-26 12:35 27.78981 36.12681 29965 ft 445 kts 308°
2026-04-26 12:36 27.83320 36.07684 29974 ft 445 kts 308°
2026-04-26 12:36 27.87650 36.02691 29971 ft 444 kts 308°
2026-04-26 12:37 27.91974 35.97697 29970 ft 445 kts 307°
2026-04-26 12:37 27.96278 35.92721 29982 ft 445 kts 307°
2026-04-26 12:38 28.00612 35.87706 29968 ft 447 kts 307°
2026-04-26 12:38 28.04963 35.82661 29974 ft 447 kts 307°
2026-04-26 12:39 28.09307 35.77618 29973 ft 448 kts 307°
2026-04-26 12:39 28.13657 35.72563 29973 ft 448 kts 307°
2026-04-26 12:40 28.18014 35.67497 29972 ft 449 kts 307°
2026-04-26 12:40 28.22388 35.62411 30003 ft 453 kts 307°
2026-04-26 12:41 28.26757 35.57311 29978 ft 452 kts 308°
2026-04-26 12:41 28.31139 35.52198 29956 ft 451 kts 307°
2026-04-26 12:42 28.35495 35.47104 29961 ft 449 kts 307°
2026-04-26 12:42 28.39802 35.42060 29956 ft 447 kts 307°
2026-04-26 12:43 28.44136 35.36972 29924 ft 449 kts 307°
2026-04-26 12:43 28.48484 35.31877 29949 ft 449 kts 307°
2026-04-26 12:44 28.52823 35.26777 29945 ft 449 kts 307°
2026-04-26 12:44 28.57161 35.21672 29919 ft 449 kts 307°
2026-04-26 12:45 28.61502 35.16560 29918 ft 449 kts 307°
2026-04-26 12:45 28.65834 35.11454 29918 ft 448 kts 307°
2026-04-26 12:46 28.70167 35.06334 29922 ft 449 kts 307°
2026-04-26 12:46 28.74509 35.01197 29908 ft 450 kts 307°
2026-04-26 12:47 28.78854 34.96049 29884 ft 450 kts 306°
2026-04-26 12:47 28.83195 34.90904 29869 ft 450 kts 306°
2026-04-26 12:48 28.87509 34.85784 29876 ft 451 kts 306°
2026-04-26 12:48 28.91861 34.80613 29856 ft 451 kts 306°
2026-04-26 12:49 28.96205 34.75442 29871 ft 451 kts 306°
2026-04-26 12:49 29.00524 34.70295 29868 ft 451 kts 306°
2026-04-26 12:50 29.05305 34.65447 29987 ft 463 kts 315°
2026-04-26 12:50 29.07952 34.63412 30269 ft 463 kts 318°
2026-04-26 12:50 29.10648 34.61402 30474 ft 460 kts 318°
2026-04-26 12:50 29.13324 34.59407 30676 ft 458 kts 318°
2026-04-26 12:51 29.15986 34.57409 30833 ft 458 kts 317°
2026-04-26 12:51 29.18644 34.55402 31005 ft 458 kts 317°
2026-04-26 12:51 29.21301 34.53386 31217 ft 458 kts 317°
2026-04-26 12:51 29.23959 34.51364 31584 ft 457 kts 317°
2026-04-26 12:52 29.26600 34.49357 31910 ft 454 kts 317°
2026-04-26 12:52 29.31860 34.45352 31894 ft 453 kts 317°
2026-04-26 12:53 29.37097 34.41358 31900 ft 452 kts 317°
2026-04-26 12:53 29.42326 34.37364 31905 ft 452 kts 317°
2026-04-26 12:54 29.47580 34.33349 31898 ft 453 kts 317°
2026-04-26 12:54 29.52818 34.29342 31899 ft 453 kts 317°
2026-04-26 12:55 29.58047 34.25336 31892 ft 454 kts 317°
2026-04-26 12:55 29.63471 34.21534 31903 ft 460 kts 323°
2026-04-26 12:56 29.69153 34.18109 31902 ft 461 kts 323°
2026-04-26 12:56 29.74830 34.14700 31904 ft 461 kts 323°
2026-04-26 12:57 29.80499 34.11265 31907 ft 461 kts 323°
2026-04-26 12:57 29.86138 34.07828 31902 ft 461 kts 323°
2026-04-26 12:58 29.94648 34.02627 31911 ft 461 kts 323°
2026-04-26 12:58 30.00325 33.99152 31920 ft 462 kts 323°
2026-04-26 12:59 30.05868 33.95457 31915 ft 458 kts 319°
2026-04-26 12:59 30.11278 33.91579 31919 ft 458 kts 319°
2026-04-26 13:00 30.16697 33.87694 31916 ft 458 kts 319°
2026-04-26 13:00 30.22101 33.83858 31926 ft 458 kts 319°
2026-04-26 13:01 30.27547 33.80008 31919 ft 458 kts 319°
2026-04-26 13:01 30.32990 33.76160 31926 ft 458 kts 319°
2026-04-26 13:02 30.38436 33.72303 31922 ft 458 kts 319°
2026-04-26 13:02 30.43876 33.68444 31935 ft 458 kts 319°
2026-04-26 13:03 30.49316 33.64581 31940 ft 458 kts 320°
2026-04-26 13:03 30.54721 33.60735 31943 ft 459 kts 320°
2026-04-26 13:04 30.60168 33.56856 31937 ft 459 kts 320°
2026-04-26 13:04 30.65618 33.52971 31937 ft 459 kts 320°
2026-04-26 13:05 30.71056 33.49087 31949 ft 459 kts 320°
2026-04-26 13:05 30.76506 33.45189 31961 ft 459 kts 320°
2026-04-26 13:06 30.81911 33.41319 31958 ft 459 kts 320°
2026-04-26 13:06 30.87353 33.37418 31942 ft 459 kts 320°
2026-04-26 13:07 30.92787 33.33517 31957 ft 458 kts 320°
2026-04-26 13:07 30.98222 33.29609 31953 ft 459 kts 320°
2026-04-26 13:08 31.03658 33.25695 31960 ft 459 kts 320°
2026-04-26 13:08 31.09069 33.21793 31961 ft 460 kts 320°
2026-04-26 13:09 31.14517 33.17861 31966 ft 461 kts 320°
2026-04-26 13:09 31.19981 33.13910 31963 ft 462 kts 320°
2026-04-26 13:10 31.25450 33.09952 31969 ft 463 kts 320°
2026-04-26 13:10 31.30930 33.05980 31968 ft 464 kts 320°
2026-04-26 13:11 31.36414 33.01999 31966 ft 464 kts 320°
2026-04-26 13:11 31.41909 32.98005 31965 ft 465 kts 320°
2026-04-26 13:12 31.47365 32.94034 31964 ft 465 kts 320°
2026-04-26 13:12 31.52858 32.90030 31960 ft 465 kts 320°
2026-04-26 13:13 31.58356 32.86018 31962 ft 465 kts 320°
2026-04-26 13:13 31.63847 32.82004 31963 ft 465 kts 320°
2026-04-26 13:14 31.68411 32.78664 31961 ft 465 kts 320°
2026-04-26 13:14 31.73897 32.74642 31962 ft 465 kts 320°
2026-04-26 13:15 31.79388 32.70612 31961 ft 465 kts 320°
2026-04-26 13:15 31.84889 32.66570 31952 ft 466 kts 320°
2026-04-26 13:16 31.90349 32.62551 31951 ft 466 kts 320°
2026-04-26 13:16 31.95852 32.58496 31952 ft 466 kts 320°
2026-04-26 13:17 32.04110 32.52397 31959 ft 467 kts 321°
2026-04-26 13:18 32.12382 32.46277 31962 ft 468 kts 321°
2026-04-26 13:19 32.20676 32.40126 31961 ft 469 kts 321°
2026-04-26 13:19 32.26199 32.36023 31957 ft 469 kts 321°
2026-04-26 13:20 32.31693 32.31935 31951 ft 469 kts 321°
2026-04-26 13:20 32.37228 32.27812 31953 ft 469 kts 321°
2026-04-26 13:21 32.42754 32.23688 31958 ft 470 kts 321°
2026-04-26 13:21 32.48276 32.19561 31953 ft 470 kts 322°
2026-04-26 13:22 32.53816 32.15414 31955 ft 470 kts 322°
2026-04-26 13:22 32.59348 32.11268 31950 ft 470 kts 322°
2026-04-26 13:23 32.64684 32.06857 31943 ft 464 kts 314°
2026-04-26 13:23 32.69362 32.01694 31953 ft 462 kts 311°
2026-04-26 13:24 32.74031 31.96434 31954 ft 462 kts 311°
2026-04-26 13:24 32.78718 31.91184 31954 ft 463 kts 311°
2026-04-26 13:25 32.83421 31.85936 31954 ft 464 kts 312°
2026-04-26 13:25 32.88132 31.80681 31953 ft 464 kts 312°
2026-04-26 13:26 32.92815 31.75450 31950 ft 465 kts 312°
2026-04-26 13:26 32.97532 31.70171 31950 ft 465 kts 312°
2026-04-26 13:27 33.02249 31.64884 31938 ft 465 kts 312°
2026-04-26 13:27 33.06965 31.59588 31944 ft 465 kts 312°
2026-04-26 13:28 33.11685 31.54281 31947 ft 466 kts 312°
2026-04-26 13:28 33.16403 31.48966 31942 ft 466 kts 312°
2026-04-26 13:29 33.21092 31.43677 31943 ft 466 kts 312°
2026-04-26 13:29 33.25807 31.38350 31941 ft 467 kts 312°
2026-04-26 13:30 33.30533 31.33002 31943 ft 468 kts 312°
2026-04-26 13:30 33.35274 31.27630 31941 ft 469 kts 312°
2026-04-26 13:31 33.39985 31.22282 31941 ft 470 kts 312°
2026-04-26 13:31 33.44743 31.16873 31942 ft 471 kts 312°
2026-04-26 13:32 33.49495 31.11462 31933 ft 472 kts 312°
2026-04-26 13:32 33.54230 31.06061 31938 ft 473 kts 312°
2026-04-26 13:33 33.58998 31.00616 31938 ft 473 kts 312°
2026-04-26 13:33 33.63769 30.95156 31932 ft 474 kts 312°
2026-04-26 13:34 33.68553 30.89673 31935 ft 475 kts 313°
2026-04-26 13:34 33.73336 30.84183 31934 ft 476 kts 313°
2026-04-26 13:35 33.78131 30.78670 31931 ft 477 kts 313°
2026-04-26 13:35 33.82930 30.73142 31933 ft 478 kts 313°
2026-04-26 13:36 33.87741 30.67593 31930 ft 479 kts 313°
2026-04-26 13:36 33.92523 30.62068 31928 ft 480 kts 313°
2026-04-26 13:37 33.97340 30.56494 31928 ft 480 kts 313°
2026-04-26 13:37 34.02157 30.50910 31931 ft 481 kts 313°
2026-04-26 13:38 34.06978 30.45312 31930 ft 481 kts 313°
2026-04-26 13:38 34.11815 30.39686 31935 ft 482 kts 313°
2026-04-26 13:39 34.16613 30.34095 31926 ft 483 kts 313°
2026-04-26 13:39 34.21451 30.28449 31920 ft 483 kts 313°
2026-04-26 13:40 34.26294 30.22788 31926 ft 484 kts 314°
2026-04-26 13:40 34.31135 30.17118 31928 ft 485 kts 314°
2026-04-26 13:41 34.35943 30.11478 31923 ft 485 kts 314°
2026-04-26 13:41 34.40797 30.05773 31929 ft 486 kts 314°
2026-04-26 13:42 34.45657 30.00054 31923 ft 486 kts 314°
2026-04-26 13:42 34.50440 29.94248 31931 ft 486 kts 313°
2026-04-26 13:43 34.55137 29.88408 31932 ft 486 kts 313°
2026-04-26 13:43 34.59866 29.82534 31924 ft 486 kts 313°
2026-04-26 13:44 34.64605 29.76662 31929 ft 486 kts 314°
2026-04-26 13:44 34.69341 29.70792 31925 ft 486 kts 314°
2026-04-26 13:45 34.74081 29.64905 31930 ft 486 kts 314°
2026-04-26 13:45 34.78815 29.59014 31932 ft 486 kts 314°
2026-04-26 13:46 34.83507 29.53164 31933 ft 486 kts 315°
2026-04-26 13:46 34.88227 29.47271 31929 ft 486 kts 315°
2026-04-26 13:47 34.92942 29.41372 31934 ft 485 kts 315°
2026-04-26 13:47 34.97661 29.35461 32029 ft 487 kts 315°
2026-04-26 13:47 35.00106 29.32630 32160 ft 484 kts 320°
2026-04-26 13:48 35.02754 29.30096 32302 ft 482 kts 324°
2026-04-26 13:48 35.05456 29.27655 32460 ft 483 kts 324°
2026-04-26 13:48 35.08165 29.25231 32732 ft 483 kts 324°
2026-04-26 13:48 35.10875 29.22803 33116 ft 482 kts 324°
2026-04-26 13:49 35.13567 29.20377 33534 ft 481 kts 324°
2026-04-26 13:49 35.16227 29.17964 33881 ft 481 kts 324°
2026-04-26 13:49 35.18921 29.15508 33911 ft 485 kts 324°
2026-04-26 13:50 35.24309 29.10572 33926 ft 480 kts 324°
2026-04-26 13:50 35.29627 29.05687 33932 ft 476 kts 324°
2026-04-26 13:51 35.34921 29.00819 33938 ft 475 kts 324°
2026-04-26 13:51 35.40206 28.95953 33935 ft 475 kts 324°
2026-04-26 13:52 35.45485 28.91085 33938 ft 475 kts 324°
2026-04-26 13:52 35.50765 28.86208 33935 ft 475 kts 324°
2026-04-26 13:53 35.56014 28.81350 33937 ft 475 kts 324°
2026-04-26 13:53 35.61291 28.76459 33938 ft 475 kts 324°
2026-04-26 13:54 35.66561 28.71566 33939 ft 474 kts 325°
2026-04-26 13:54 35.71822 28.66673 33937 ft 473 kts 325°
2026-04-26 13:55 35.78804 28.60166 33938 ft 472 kts 325°
2026-04-26 13:56 35.87480 28.52060 33941 ft 469 kts 325°
2026-04-26 13:56 35.92681 28.47190 33944 ft 468 kts 326°
2026-04-26 13:57 35.97867 28.42325 33945 ft 467 kts 326°
2026-04-26 13:57 36.03035 28.37470 33941 ft 466 kts 326°
2026-04-26 13:58 36.08199 28.32610 33942 ft 466 kts 326°
2026-04-26 13:58 36.13352 28.27753 33934 ft 465 kts 326°
2026-04-26 13:59 36.18497 28.22894 33924 ft 465 kts 326°
2026-04-26 13:59 36.23596 28.18070 33919 ft 464 kts 326°
2026-04-26 14:00 36.33823 28.08348 33909 ft 463 kts 324°
2026-04-26 14:01 36.38619 28.02996 33907 ft 464 kts 320°
2026-04-26 14:01 36.42524 27.98438 33906 ft 463 kts 320°
2026-04-26 14:02 36.47212 27.92967 33909 ft 462 kts 321°
2026-04-26 14:02 36.52669 27.86628 33914 ft 461 kts 321°
2026-04-26 14:03 36.56575 27.82097 33916 ft 461 kts 321°
2026-04-26 14:03 36.61267 27.76646 33946 ft 462 kts 321°
2026-04-26 14:04 36.65961 27.71182 33945 ft 462 kts 321°
2026-04-26 14:04 36.70652 27.65711 33948 ft 462 kts 321°
2026-04-26 14:05 36.75343 27.60230 33933 ft 462 kts 321°
2026-04-26 14:05 36.80037 27.54737 33930 ft 462 kts 321°
2026-04-26 14:06 36.84729 27.49234 33940 ft 462 kts 321°
2026-04-26 14:06 36.89378 27.43774 33939 ft 461 kts 321°
2026-04-26 14:07 36.94046 27.38280 33939 ft 460 kts 321°
2026-04-26 14:07 36.98700 27.32795 33945 ft 459 kts 321°
2026-04-26 14:08 37.03349 27.27304 33947 ft 458 kts 321°
2026-04-26 14:08 37.07983 27.21825 33940 ft 457 kts 321°
2026-04-26 14:09 37.12572 27.16387 33936 ft 456 kts 321°
2026-04-26 14:09 37.17183 27.10913 33944 ft 455 kts 320°
2026-04-26 14:10 37.21777 27.05450 33950 ft 455 kts 320°
2026-04-26 14:10 37.26364 26.99986 33948 ft 454 kts 320°
2026-04-26 14:11 37.33193 26.91831 33947 ft 453 kts 320°
2026-04-26 14:11 37.37755 26.86373 33952 ft 453 kts 320°
2026-04-26 14:12 37.42390 26.81033 33944 ft 451 kts 323°
2026-04-26 14:12 37.47169 26.75922 33947 ft 450 kts 323°
2026-04-26 14:13 37.54336 26.68250 33958 ft 451 kts 323°
2026-04-26 14:14 37.59099 26.63099 33962 ft 451 kts 322°
2026-04-26 14:14 37.63857 26.57942 33969 ft 451 kts 322°
2026-04-26 14:15 37.68619 26.52774 33964 ft 451 kts 322°
2026-04-26 14:15 37.73366 26.47598 33977 ft 450 kts 322°
2026-04-26 14:16 37.78070 26.42453 33979 ft 450 kts 322°
2026-04-26 14:16 37.82802 26.37268 33982 ft 449 kts 322°
2026-04-26 14:17 37.87524 26.32090 33984 ft 449 kts 322°
2026-04-26 14:17 37.92247 26.26920 33989 ft 448 kts 322°
2026-04-26 14:18 37.96967 26.21746 33986 ft 448 kts 322°
2026-04-26 14:18 38.01687 26.16560 33988 ft 448 kts 322°
2026-04-26 14:19 38.06376 26.11400 33982 ft 448 kts 321°
2026-04-26 14:19 38.11083 26.06214 33981 ft 448 kts 321°
2026-04-26 14:20 38.15795 26.01013 33978 ft 448 kts 321°
2026-04-26 14:20 38.20503 25.95807 33975 ft 448 kts 321°
2026-04-26 14:21 38.25184 25.90631 33981 ft 448 kts 322°
2026-04-26 14:21 38.30053 25.85684 33980 ft 447 kts 324°
2026-04-26 14:22 38.34978 25.80830 33992 ft 447 kts 324°
2026-04-26 14:22 38.39898 25.75963 34001 ft 447 kts 324°
2026-04-26 14:23 38.44799 25.71079 34005 ft 447 kts 323°
2026-04-26 14:23 38.49665 25.66210 34008 ft 447 kts 323°
2026-04-26 14:24 38.54554 25.61307 34017 ft 447 kts 323°
2026-04-26 14:24 38.59441 25.56397 34017 ft 447 kts 323°
2026-04-26 14:25 38.64329 25.51479 34009 ft 447 kts 323°
2026-04-26 14:25 38.69209 25.46560 34015 ft 446 kts 323°
2026-04-26 14:26 38.74083 25.41638 34019 ft 446 kts 323°
2026-04-26 14:26 38.78927 25.36737 34020 ft 445 kts 323°
2026-04-26 14:27 38.83791 25.31808 34016 ft 445 kts 322°
2026-04-26 14:27 38.88649 25.26876 34014 ft 445 kts 322°
2026-04-26 14:28 38.93504 25.21937 34022 ft 444 kts 322°
2026-04-26 14:28 38.98346 25.17005 34018 ft 444 kts 322°
2026-04-26 14:29 39.03154 25.12096 34019 ft 444 kts 322°
2026-04-26 14:29 39.07997 25.07144 34020 ft 443 kts 322°
2026-04-26 14:30 39.12823 25.02200 34019 ft 443 kts 322°
2026-04-26 14:30 39.17642 24.97255 34018 ft 442 kts 322°
2026-04-26 14:31 39.22456 24.92305 34019 ft 442 kts 322°
2026-04-26 14:31 39.27232 24.87386 34018 ft 441 kts 322°
2026-04-26 14:32 39.32032 24.82434 34018 ft 441 kts 321°
2026-04-26 14:32 39.36826 24.77478 34019 ft 441 kts 321°
2026-04-26 14:33 39.41612 24.72522 34021 ft 440 kts 321°
2026-04-26 14:33 39.46393 24.67562 34019 ft 440 kts 321°
2026-04-26 14:34 39.51132 24.62636 34015 ft 439 kts 321°
2026-04-26 14:34 39.55895 24.57677 34012 ft 439 kts 321°
2026-04-26 14:35 39.60667 24.52700 34015 ft 439 kts 321°
2026-04-26 14:35 39.65422 24.47731 34015 ft 439 kts 321°
2026-04-26 14:36 39.70179 24.42751 34014 ft 439 kts 320°
2026-04-26 14:36 39.74935 24.37762 34016 ft 439 kts 320°
2026-04-26 14:37 39.79685 24.32771 34015 ft 439 kts 320°
2026-04-26 14:37 39.84408 24.27800 34008 ft 439 kts 320°
2026-04-26 14:38 39.89155 24.22793 34010 ft 439 kts 320°
2026-04-26 14:38 39.93902 24.17777 34007 ft 439 kts 320°
2026-04-26 14:39 39.98645 24.12757 34009 ft 439 kts 320°
2026-04-26 14:39 40.03349 24.07769 34008 ft 439 kts 320°
2026-04-26 14:40 40.08082 24.02740 34003 ft 439 kts 320°
2026-04-26 14:40 40.12814 23.97704 34001 ft 439 kts 320°
2026-04-26 14:41 40.17544 23.92660 33996 ft 439 kts 319°
2026-04-26 14:41 40.22274 23.87608 33993 ft 438 kts 319°
2026-04-26 14:42 40.27006 23.82543 33990 ft 438 kts 319°
2026-04-26 14:42 40.31727 23.77481 33986 ft 438 kts 319°
2026-04-26 14:43 40.36415 23.72444 33986 ft 438 kts 319°
2026-04-26 14:43 40.41131 23.67368 33980 ft 438 kts 319°
2026-04-26 14:44 40.45844 23.62286 33982 ft 438 kts 319°
2026-04-26 14:44 40.50529 23.57224 33977 ft 438 kts 319°
2026-04-26 14:45 40.55234 23.52132 33978 ft 438 kts 319°
2026-04-26 14:45 40.59944 23.47025 33966 ft 438 kts 319°
2026-04-26 14:46 40.64645 23.41917 33976 ft 438 kts 319°
2026-04-26 14:46 40.69347 23.36799 33960 ft 438 kts 319°
2026-04-26 14:47 40.74017 23.31705 33973 ft 438 kts 319°
2026-04-26 14:47 40.78710 23.26577 33960 ft 438 kts 319°
2026-04-26 14:48 40.83406 23.21437 33958 ft 438 kts 319°
2026-04-26 14:48 40.87307 23.17160 33969 ft 439 kts 319°
2026-04-26 14:49 40.92005 23.11998 33958 ft 439 kts 319°
2026-04-26 14:49 40.97468 23.05984 33963 ft 439 kts 319°
2026-04-26 14:50 41.01381 23.01668 33962 ft 440 kts 319°
2026-04-26 14:50 41.06086 22.96469 33965 ft 440 kts 319°
2026-04-26 14:51 41.10785 22.91268 33972 ft 440 kts 319°
2026-04-26 14:51 41.15480 22.86059 33964 ft 439 kts 319°
2026-04-26 14:52 41.20170 22.80847 33975 ft 439 kts 318°
2026-04-26 14:52 41.24820 22.75573 33971 ft 440 kts 315°
2026-04-26 14:53 41.28972 22.69675 34165 ft 441 kts 311°
2026-04-26 14:53 41.31021 22.66645 34418 ft 439 kts 311°
2026-04-26 14:53 41.33064 22.63624 34697 ft 439 kts 311°
2026-04-26 14:53 41.35109 22.60605 35076 ft 438 kts 311°
2026-04-26 14:54 41.37149 22.57601 35448 ft 436 kts 311°
2026-04-26 14:54 41.39183 22.54608 35818 ft 435 kts 311°
2026-04-26 14:54 41.41224 22.51605 35924 ft 440 kts 310°
2026-04-26 14:55 41.45340 22.45545 35979 ft 439 kts 311°
2026-04-26 14:55 41.49413 22.39540 35981 ft 434 kts 311°
2026-04-26 14:56 41.53429 22.33605 35990 ft 432 kts 310°
2026-04-26 14:56 41.57454 22.27644 35997 ft 431 kts 310°
2026-04-26 14:57 41.61471 22.21683 35995 ft 432 kts 310°
2026-04-26 14:57 41.65501 22.15689 35999 ft 433 kts 310°
2026-04-26 14:58 41.69511 22.09716 36004 ft 435 kts 310°
2026-04-26 14:58 41.73559 22.03671 36002 ft 436 kts 310°
2026-04-26 14:59 41.77609 21.97613 36006 ft 437 kts 310°
2026-04-26 14:59 41.81671 21.91524 36010 ft 438 kts 310°
2026-04-26 15:00 41.85731 21.85424 36021 ft 438 kts 310°
2026-04-26 15:00 41.89793 21.79310 36023 ft 439 kts 310°
2026-04-26 15:01 41.93833 21.73216 36024 ft 440 kts 310°
2026-04-26 15:01 41.97906 21.67060 36022 ft 440 kts 310°
2026-04-26 15:02 42.01974 21.60897 36021 ft 440 kts 310°
2026-04-26 15:02 42.06007 21.54775 36017 ft 439 kts 310°
2026-04-26 15:03 42.10058 21.48612 36026 ft 439 kts 310°
2026-04-26 15:03 42.14109 21.42437 36031 ft 440 kts 310°
2026-04-26 15:04 42.18135 21.36234 36046 ft 439 kts 309°
2026-04-26 15:04 42.22099 21.29943 36057 ft 440 kts 309°
2026-04-26 15:05 42.26062 21.23625 36058 ft 441 kts 309°
2026-04-26 15:05 42.30043 21.17281 36063 ft 442 kts 309°
2026-04-26 15:06 42.33996 21.10981 36071 ft 442 kts 309°
2026-04-26 15:06 42.37979 21.04622 36072 ft 443 kts 309°
2026-04-26 15:07 42.43945 20.95069 36077 ft 443 kts 309°
2026-04-26 15:07 42.47922 20.88685 36068 ft 444 kts 309°
2026-04-26 15:08 42.51903 20.82280 36075 ft 445 kts 309°
2026-04-26 15:08 42.55889 20.75851 36066 ft 445 kts 309°
2026-04-26 15:09 42.59874 20.69413 36070 ft 445 kts 309°
2026-04-26 15:09 42.63857 20.62962 36058 ft 446 kts 309°
2026-04-26 15:10 42.67163 20.57596 36077 ft 446 kts 309°
2026-04-26 15:10 42.71789 20.50074 36067 ft 446 kts 309°
2026-04-26 15:11 42.75762 20.43595 36081 ft 446 kts 309°
2026-04-26 15:11 42.79737 20.37101 36072 ft 446 kts 309°
2026-04-26 15:12 42.83776 20.30693 36093 ft 446 kts 313°
2026-04-26 15:12 42.88374 20.24998 36087 ft 447 kts 317°
2026-04-26 15:13 42.93074 20.19422 36091 ft 448 kts 317°
2026-04-26 15:13 42.97764 20.13820 36091 ft 448 kts 317°
2026-04-26 15:14 43.02451 20.08174 36091 ft 449 kts 317°
2026-04-26 15:14 43.07133 20.02507 36087 ft 449 kts 317°
2026-04-26 15:15 43.11808 19.96835 36095 ft 450 kts 317°
2026-04-26 15:15 43.16492 19.91140 36093 ft 450 kts 317°
2026-04-26 15:16 43.21170 19.85442 36097 ft 450 kts 317°
2026-04-26 15:16 43.25851 19.79728 36090 ft 451 kts 317°
2026-04-26 15:17 43.29740 19.74972 36094 ft 451 kts 317°
2026-04-26 15:17 43.35207 19.68270 36095 ft 451 kts 317°
2026-04-26 15:18 43.39847 19.62568 36093 ft 450 kts 317°
2026-04-26 15:18 43.44517 19.56820 36090 ft 450 kts 317°
2026-04-26 15:19 43.49180 19.51066 36106 ft 450 kts 317°
2026-04-26 15:19 43.53840 19.45303 36097 ft 450 kts 317°
2026-04-26 15:20 43.58500 19.39529 36092 ft 450 kts 317°
2026-04-26 15:20 43.63163 19.33737 36097 ft 451 kts 317°
2026-04-26 15:21 43.67824 19.27935 36102 ft 451 kts 317°
2026-04-26 15:21 43.72462 19.22151 36100 ft 452 kts 317°
2026-04-26 15:22 43.77124 19.16322 36105 ft 452 kts 317°
2026-04-26 15:22 43.81793 19.10474 36096 ft 452 kts 317°
2026-04-26 15:23 43.86457 19.04617 36104 ft 452 kts 317°
2026-04-26 15:23 43.91119 18.98749 36101 ft 453 kts 317°
2026-04-26 15:24 43.95776 18.92877 36100 ft 453 kts 317°
2026-04-26 15:24 44.00433 18.86990 36100 ft 452 kts 317°
2026-04-26 15:25 44.04302 18.82090 36096 ft 452 kts 317°
2026-04-26 15:25 44.09722 18.75210 36105 ft 451 kts 317°
2026-04-26 15:26 44.14350 18.69321 36107 ft 451 kts 317°
2026-04-26 15:26 44.18943 18.63463 36111 ft 450 kts 317°
2026-04-26 15:27 44.23565 18.57556 36112 ft 450 kts 317°
2026-04-26 15:27 44.28178 18.51648 36121 ft 450 kts 317°
2026-04-26 15:28 44.32788 18.45729 36119 ft 450 kts 316°
2026-04-26 15:28 44.37404 18.39790 36114 ft 451 kts 316°
2026-04-26 15:29 44.42017 18.33841 36116 ft 451 kts 316°
2026-04-26 15:30 44.51231 18.21919 36110 ft 452 kts 316°
2026-04-26 15:30 44.55851 18.15921 36113 ft 452 kts 316°
2026-04-26 15:31 44.62789 18.06887 36109 ft 452 kts 316°
2026-04-26 15:32 44.68142 17.99897 36108 ft 452 kts 316°
2026-04-26 15:32 44.74265 17.91877 36114 ft 451 kts 316°
2026-04-26 15:33 44.78855 17.85849 36112 ft 450 kts 316°
2026-04-26 15:33 44.83432 17.79826 36113 ft 450 kts 316°
2026-04-26 15:34 44.87972 17.73837 36113 ft 449 kts 316°
2026-04-26 15:34 44.92540 17.67796 36115 ft 449 kts 316°
2026-04-26 15:35 44.97098 17.61756 36108 ft 449 kts 316°
2026-04-26 15:35 45.00881 17.56732 36109 ft 449 kts 316°
2026-04-26 15:36 45.05436 17.50670 36107 ft 449 kts 316°
2026-04-26 15:36 45.09985 17.44602 36109 ft 449 kts 316°
2026-04-26 15:37 45.14533 17.38520 36110 ft 449 kts 315°
2026-04-26 15:37 45.19065 17.32398 36104 ft 449 kts 315°
2026-04-26 15:38 45.23560 17.26297 36114 ft 449 kts 315°
2026-04-26 15:38 45.28073 17.20159 36125 ft 449 kts 315°
2026-04-26 15:39 45.32586 17.14011 36120 ft 449 kts 315°
2026-04-26 15:39 45.36338 17.08890 36134 ft 449 kts 315°
2026-04-26 15:40 45.41571 17.01732 36114 ft 449 kts 315°
2026-04-26 15:40 45.46066 16.95567 36133 ft 448 kts 315°
2026-04-26 15:41 45.50552 16.89400 36137 ft 448 kts 315°
2026-04-26 15:41 45.55037 16.83219 36125 ft 448 kts 315°
2026-04-26 15:42 45.59490 16.77070 36124 ft 447 kts 315°
2026-04-26 15:42 45.63958 16.70885 36148 ft 447 kts 315°
2026-04-26 15:43 45.68422 16.64691 36137 ft 447 kts 314°
2026-04-26 15:44 45.75112 16.55381 36134 ft 447 kts 314°
2026-04-26 15:44 45.81790 16.46054 36140 ft 446 kts 314°
2026-04-26 15:45 45.88422 16.36760 36138 ft 446 kts 314°
2026-04-26 15:46 45.95079 16.27398 36145 ft 445 kts 314°
2026-04-26 15:46 45.98755 16.22214 36137 ft 445 kts 314°
2026-04-26 15:47 46.06135 16.11772 36142 ft 446 kts 314°
2026-04-26 15:48 46.10526 16.05541 36151 ft 446 kts 314°
2026-04-26 15:48 46.14949 15.99250 36149 ft 447 kts 314°
2026-04-26 15:49 46.19373 15.92941 36151 ft 447 kts 314°
2026-04-26 15:49 46.23794 15.86622 36162 ft 447 kts 314°
2026-04-26 15:50 46.28260 15.80268 36168 ft 448 kts 314°
2026-04-26 15:50 46.32770 15.74134 36178 ft 448 kts 315°
2026-04-26 15:51 46.37331 15.67984 36183 ft 448 kts 315°
2026-04-26 15:51 46.41871 15.61822 36183 ft 447 kts 315°
2026-04-26 15:52 46.46391 15.55646 36184 ft 446 kts 315°
2026-04-26 15:52 46.50899 15.49463 36182 ft 445 kts 315°
2026-04-26 15:53 46.55398 15.43276 36169 ft 444 kts 315°
2026-04-26 15:53 46.59852 15.37138 36166 ft 442 kts 315°
2026-04-26 15:54 46.64314 15.30977 36162 ft 442 kts 314°
2026-04-26 15:54 46.68769 15.24807 36149 ft 442 kts 314°
2026-04-26 15:55 46.73224 15.18623 36145 ft 442 kts 314°
2026-04-26 15:55 46.77666 15.12443 36144 ft 441 kts 314°
2026-04-26 15:56 46.82069 15.06305 36149 ft 440 kts 314°
2026-04-26 15:56 46.86500 15.00110 36138 ft 441 kts 314°
2026-04-26 15:57 46.90936 14.93893 36134 ft 442 kts 314°
2026-04-26 15:57 46.95376 14.87656 36126 ft 443 kts 314°
2026-04-26 15:58 46.99825 14.81392 36124 ft 444 kts 314°
2026-04-26 15:58 47.04280 14.75104 36133 ft 445 kts 314°
2026-04-26 15:59 47.08740 14.68793 36136 ft 446 kts 314°
2026-04-26 15:59 47.13212 14.62450 36133 ft 447 kts 314°
2026-04-26 16:00 47.17650 14.56140 36133 ft 446 kts 314°
2026-04-26 16:00 47.22100 14.49796 36136 ft 447 kts 314°
2026-04-26 16:01 47.26576 14.43402 36125 ft 447 kts 314°
2026-04-26 16:01 47.31011 14.37049 36142 ft 447 kts 314°
2026-04-26 16:02 47.35467 14.30648 36137 ft 447 kts 314°
2026-04-26 16:02 47.39917 14.24245 36153 ft 446 kts 313°
2026-04-26 16:03 47.44354 14.17841 36152 ft 446 kts 313°
2026-04-26 16:03 47.48786 14.11428 36162 ft 446 kts 313°
2026-04-26 16:04 47.53215 14.05004 36151 ft 445 kts 313°
2026-04-26 16:04 47.57630 13.98584 36174 ft 444 kts 313°
2026-04-26 16:05 47.62040 13.92155 36169 ft 444 kts 313°
2026-04-26 16:05 47.66419 13.85755 36177 ft 445 kts 313°
2026-04-26 16:06 47.70827 13.79298 36169 ft 445 kts 313°
2026-04-26 16:06 47.75243 13.72815 36182 ft 446 kts 313°
2026-04-26 16:07 47.79655 13.66318 36178 ft 446 kts 313°
2026-04-26 16:07 47.84058 13.59817 36171 ft 445 kts 313°
2026-04-26 16:08 47.88425 13.53354 36176 ft 444 kts 313°
2026-04-26 16:08 47.92801 13.46862 36183 ft 443 kts 313°
2026-04-26 16:09 47.97177 13.40354 36180 ft 443 kts 313°
2026-04-26 16:09 47.99353 13.37111 36186 ft 443 kts 313°